Weather History for KVYS - December, 2011

Change the Weather History Date:

Thursday, December 29, 2011

  Actual Average Record
Temperature  
Mean Temperature 44 °F -  
Max Temperature 53 °F 33 °F 67 °F (1984)
Min Temperature 34 °F 17 °F -11 °F (1976)
Degree Days  
Heating Degree Days 22    
Moisture  
Dew Point 34 °F    
Average Humidity 72    
Maximum Humidity 90    
Minimum Humidity 51    
Precipitation  
Precipitation 0.00 in - - ()
Sea Level Pressure  
Sea Level Pressure 29.64 in    
Wind  
Wind Speed 11 mph (WSW)    
Max Wind Speed 23 mph    
Max Gust Speed 31 mph    
Visibility 10 miles    
Events      
Averages and records for this station are not official NWS values.
T = Trace of Precipitation, MM = Missing Value Source: NWS Daily Summary

Daily Weather History Graph

Daily Weather History Graph

Search for Another Location

Airport or City:

Trip Planner

Search our weather history database for the weather conditions in past years. The results will help you decide how hot, cold, wet, or windy it might be!

Date:

Astronomy

Dec. 29, 2011 Rise Set
Actual Time 7:22 AM CST 4:35 PM CST
Civil Twilight 6:50 AM CST 5:06 PM CST
Nautical Twilight 6:15 AM CST 5:41 PM CST
Astronomical Twilight 5:42 AM CST 6:14 PM CST
Moon 10:11 AM CST (12/29) 10:15 PM CST (12/29)
Length of Visible Light 10h 15m
Length of Day
9h 13m
Waxing Crescent, 27% of the Moon is Illuminated
Dec 29
Waxing Crescent
Jan 1
First Quarter
Jan 9
Full
Jan 16
Last Quarter
Jan 23
New

Hourly Weather History & Observations

Time (CST) Temp. Windchill Dew Point Humidity Pressure Visibility Wind Dir Wind Speed Gust Speed Precip Events Conditions
12:15 AM 35.6 °F 29.2 °F 32.0 °F 87% 29.78 in 10.0 mi South 8.1 mph - N/A   Scattered Clouds
12:35 AM 34.7 °F 26.9 °F 32.0 °F 90% 29.78 in 7.0 mi South 10.4 mph - N/A   Scattered Clouds
12:55 AM 34.9 °F 28.3 °F 32.0 °F 89% 29.77 in 7.0 mi South 8.1 mph - N/A   Mostly Cloudy
1:15 AM 35.6 °F 29.2 °F 32.0 °F 87% 29.76 in 10.0 mi South 8.1 mph - N/A   Mostly Cloudy
1:55 AM 36.5 °F 32.7 °F 33.1 °F 87% 29.75 in 10.0 mi SSW 4.6 mph - N/A   Overcast
2:15 AM 36.5 °F 31.0 °F 33.1 °F 87% 29.74 in 10.0 mi SSW 6.9 mph - N/A   Overcast
2:35 AM 36.5 °F 31.0 °F 33.1 °F 87% 29.73 in 10.0 mi SSW 6.9 mph - N/A   Overcast
2:55 AM 36.5 °F 31.0 °F 32.7 °F 86% 29.71 in 10.0 mi South 6.9 mph - N/A   Overcast
3:15 AM 36.5 °F 30.3 °F 32.9 °F 87% 29.70 in 10.0 mi South 8.1 mph - N/A   Overcast
7:15 AM 35.2 °F 27.6 °F 31.6 °F 87% 29.60 in 10.0 mi SSW 10.4 mph - N/A   Clear
7:35 AM 36.5 °F 29.2 °F 32.0 °F 84% 29.60 in 10.0 mi SSW 10.4 mph - N/A   Clear
7:55 AM 39.2 °F 30.5 °F 33.8 °F 81% 29.58 in 10.0 mi SW 16.1 mph 19.6 mph N/A   Scattered Clouds
8:15 AM 41.0 °F 33.5 °F 33.8 °F 76% 29.59 in 10.0 mi SW 13.8 mph 19.6 mph N/A   Scattered Clouds
8:35 AM 41.5 °F 33.2 °F 33.8 °F 74% 29.59 in 10.0 mi SW 17.3 mph 20.7 mph N/A   Mostly Cloudy
8:55 AM 41.5 °F 33.8 °F 33.8 °F 74% 29.59 in 10.0 mi SW 15.0 mph 25.3 mph N/A   Scattered Clouds
9:15 AM 42.4 °F 34.7 °F 33.4 °F 70% 29.58 in 10.0 mi SW 16.1 mph 21.9 mph N/A   Clear
9:55 AM 44.2 °F 36.4 °F 33.8 °F 67% 29.57 in 10.0 mi WSW 18.4 mph 25.3 mph N/A   Clear
10:15 AM 45.1 °F 37.3 °F 34.3 °F 66% 29.57 in 10.0 mi West 19.6 mph 24.2 mph N/A   Clear
10:35 AM 45.9 °F 38.8 °F 34.3 °F 64% 29.56 in 10.0 mi WSW 17.3 mph 24.2 mph N/A   Clear
10:55 AM 47.3 °F - 34.9 °F 62% 29.55 in 10.0 mi WSW 18.4 mph 23.0 mph N/A   Clear
11:15 AM 48.4 °F - 34.7 °F 59% 29.55 in 10.0 mi West 23.0 mph 29.9 mph N/A   Clear
11:35 AM 49.1 °F - 35.4 °F 59% 29.55 in 10.0 mi West 19.6 mph 28.8 mph N/A   Clear
11:55 AM 50.2 °F - 35.8 °F 58% 29.55 in 10.0 mi West 20.7 mph - N/A   Clear
12:35 PM 51.3 °F - 35.8 °F 55% 29.54 in 10.0 mi West 15.0 mph 29.9 mph N/A   Clear
12:55 PM 51.8 °F - 35.8 °F 54% 29.54 in 10.0 mi West 21.9 mph 29.9 mph N/A   Clear
1:15 PM 51.8 °F - 35.6 °F 54% 29.55 in 10.0 mi West 21.9 mph 31.1 mph N/A   Clear
1:35 PM 53.1 °F - 36.3 °F 53% 29.55 in 10.0 mi West 23.0 mph 28.8 mph N/A   Clear
1:55 PM 53.2 °F - 36.5 °F 53% 29.56 in 10.0 mi West 23.0 mph 26.5 mph N/A   Clear
2:15 PM 53.6 °F - 35.6 °F 51% 29.57 in 10.0 mi West 19.6 mph 25.3 mph N/A   Clear
2:35 PM 53.1 °F - 36.3 °F 53% 29.58 in 10.0 mi West 18.4 mph 28.8 mph N/A   Clear
3:15 PM 52.9 °F - 36.9 °F 55% 29.59 in 10.0 mi West 18.4 mph 21.9 mph N/A   Clear
3:35 PM 52.2 °F - 35.6 °F 53% 29.60 in 10.0 mi West 12.7 mph 23.0 mph N/A   Clear
3:55 PM 51.8 °F - 35.6 °F 54% 29.60 in 10.0 mi West 9.2 mph 16.1 mph N/A   Clear
4:35 PM 48.2 °F - 35.6 °F 62% 29.63 in 10.0 mi West 11.5 mph - N/A   Clear
4:55 PM 46.8 °F - 35.2 °F 64% 29.65 in 10.0 mi West 10.4 mph - N/A   Clear
5:15 PM 44.4 °F 39.5 °F 34.7 °F 69% 29.65 in 10.0 mi West 9.2 mph - N/A   Clear
5:35 PM 44.4 °F 39.5 °F 34.7 °F 69% 29.65 in 10.0 mi West 9.2 mph - N/A   Clear
5:55 PM 44.4 °F 42.0 °F 34.3 °F 68% 29.66 in 10.0 mi West 4.6 mph - N/A   Clear
6:35 PM 42.8 °F 40.1 °F 33.8 °F 70% 29.67 in 10.0 mi West 4.6 mph - N/A   Clear
6:55 PM 43.3 °F 40.7 °F 33.8 °F 69% 29.69 in 10.0 mi WSW 4.6 mph - N/A   Clear
7:15 PM 39.4 °F 33.8 °F 32.7 °F 77% 29.70 in 10.0 mi West 8.1 mph - N/A   Clear
7:35 PM 41.5 °F 39.6 °F 34.0 °F 75% 29.71 in 10.0 mi WSW 3.5 mph - N/A   Clear
7:55 PM 41.0 °F 37.1 °F 33.8 °F 76% 29.71 in 10.0 mi West 5.8 mph - N/A   Clear
8:15 PM 39.6 °F - 33.1 °F 78% 29.71 in 10.0 mi Calm Calm - N/A   Clear
8:35 PM 38.7 °F - 33.8 °F 83% 29.71 in 10.0 mi Calm Calm - N/A   Clear
8:55 PM 41.5 °F - 34.2 °F 75% 29.71 in 10.0 mi Calm Calm - N/A   Clear
9:15 PM 41.0 °F - 33.8 °F 76% 29.71 in 10.0 mi Calm Calm - N/A   Clear
9:35 PM 39.0 °F 36.8 °F 33.8 °F 82% 29.70 in 10.0 mi NE 3.5 mph - N/A   Clear
9:55 PM 39.2 °F 32.5 °F 33.4 °F 80% 29.71 in 10.0 mi South 10.4 mph - N/A   Clear
10:15 PM 38.1 °F 33.7 °F 34.2 °F 86% 29.71 in 10.0 mi South 5.8 mph - N/A   Clear
10:35 PM 38.1 °F - 34.0 °F 85% 29.71 in 10.0 mi Calm Calm - N/A   Scattered Clouds
11:15 PM 39.6 °F - 34.7 °F 83% 29.68 in 10.0 mi Calm Calm - N/A   Overcast
11:35 PM 39.7 °F 36.5 °F 35.1 °F 83% 29.67 in 10.0 mi East 4.6 mph - N/A   Mostly Cloudy
11:55 PM 39.9 °F 36.7 °F 34.9 °F 82% 29.66 in 10.0 mi ENE 4.6 mph - N/A   Mostly Cloudy